ATLAS 5 CENTAUR R/B - Orbit

View from above orbital plane
View from above orbital plane
View from above satellite
View from above satellite

Ground track
Ground track

The orbit data is extracted from the following two-line orbital elements,

1 30778U 07006G   13144.32317574  .00018308  00000-0  58001-3 0  6841
2 30778 035.6903 098.6854 0021370 268.5759 219.9834 15.31678155344940
Epoch (UTC): 24 May 2013 07:45:22
Eccentricity: 0.0021370
inclination: 35.6903°
perigee height: 456 km
apogee height: 485 km
right ascension of ascending node: 98.6854°
argument of perigee: 268.5759°
revolutions per day: 15.31678155
mean anomaly at epoch: 219.9834°
orbit number at epoch: 34494

The dashed part of the orbit path shows where the satellite is in the earth's shadow,  

Developed and maintained by Chris Peat, Heavens-Above GmbH. Please read the updated FAQ before sending e-mail. Imprint. DLR